DW7791 Sandvika NO current weather conditions

sailwx.info

Wind from 256

Air temperature 5.0° C
Dewpoint -4.8° C

Last reported at 2018-Oct-23 19:05 UTC.
Time now 2018-Oct-23 20:11 UTC

Location: N 59°53' E 010°31'.
View on Google Maps.

See reports from other nearby stations

  
Tides and Currents Weather Stations Pressure Air Temp Water Temp Dewpoint Dewpoint Depression Visibility Wind Speed Wind Dir Waves Ship Positions
date/time (UTC)wind fromknots sea level pressurealtimeterstation pressurevisibilityair tempwater tempwave heightnotes
2018-Oct-23 19:05 256 5.0
2018-Oct-23 18:55 180 0 gusting 2 5.0
2018-Oct-23 18:45 234 5.6
2018-Oct-23 18:35 226 0 gusting 1 5.6
2018-Oct-23 18:25 227 5.6
2018-Oct-23 18:15 214 5.6
2018-Oct-23 18:05 190 5.6
2018-Oct-23 17:55 166 0 gusting 2 5.6
2018-Oct-23 17:45 213 5.6
2018-Oct-23 17:35 224 6.1
2018-Oct-23 17:25 203 0 gusting 3 6.1
2018-Oct-23 17:15 217 0 gusting 2 6.7
2018-Oct-23 17:05 199 0 gusting 4 6.7
2018-Oct-23 16:55 247 1 gusting 6 7.2
2018-Oct-23 16:45 189 1 gusting 3 7.2
2018-Oct-23 16:35 176 1 gusting 6 7.2
2018-Oct-23 16:25 211 1 gusting 2 7.2
2018-Oct-23 16:15 252 1 gusting 4 7.8
2018-Oct-23 16:05 246 1 gusting 6 8.3
2018-Oct-23 15:55 253 2 gusting 4 8.9
2018-Oct-23 15:45 241 3 gusting 6 9.4
2018-Oct-23 15:35 253 2 gusting 4 9.4
2018-Oct-23 15:25 263 2 gusting 5 10.0
2018-Oct-23 15:15 235 2 gusting 5 10.0
2018-Oct-23 15:05 236 2 gusting 5 10.0
2018-Oct-23 14:55 227 1 gusting 4 10.0
2018-Oct-23 14:45 200 2 gusting 4 10.6
2018-Oct-23 14:35 231 1 gusting 4 10.6
2018-Oct-23 14:25 212 3 gusting 8 10.6
2018-Oct-23 14:15 236 2 gusting 7 11.1
2018-Oct-23 14:05 201 2 gusting 6 11.7
2018-Oct-23 13:55 232 2 gusting 4 11.7
2018-Oct-23 13:45 244 1 gusting 5 11.7
2018-Oct-23 13:35 199 1 gusting 3 11.1
2018-Oct-23 13:25 198 1 gusting 3 11.1
2018-Oct-23 13:15 239 1 gusting 2 11.1
2018-Oct-23 13:05 228 1 gusting 3 11.1
2018-Oct-23 12:55 192 0 gusting 3 11.1
2018-Oct-23 12:45 167 1 gusting 5 11.7
2018-Oct-23 12:35 252 2 gusting 6 11.7
2018-Oct-23 12:25 195 2 gusting 6 11.7
2018-Oct-23 12:15 189 2 gusting 6 11.7
2018-Oct-23 12:05 178 1 gusting 3 11.7
2018-Oct-23 11:55 226 2 gusting 6 11.7
2018-Oct-23 11:45 199 1 gusting 5 11.7
2018-Oct-23 11:35 248 2 gusting 3 11.7
2018-Oct-23 11:25 198 1 gusting 6 11.7
2018-Oct-23 11:15 222 1 gusting 5 11.1
2018-Oct-23 11:05 219 1 gusting 3 11.1
2018-Oct-23 10:55 207 1 gusting 4 11.1
2018-Oct-23 10:45 229 1 gusting 6 11.1
2018-Oct-23 10:35 187 0 gusting 3 11.1
2018-Oct-23 10:25 222 1 gusting 2 11.1
2018-Oct-23 10:15 214 1 gusting 3 11.1
2018-Oct-23 10:05 212 1 gusting 4 11.1
2018-Oct-23 09:55 255 2 gusting 5 11.1
2018-Oct-23 09:45 202 1 gusting 4 11.1
2018-Oct-23 09:35 233 1 gusting 4 10.6
2018-Oct-23 09:25 236 1 gusting 6 10.6
2018-Oct-23 09:15 251 1 gusting 3 10.6
2018-Oct-23 09:05 196 2 gusting 4 10.6
2018-Oct-23 08:55 234 2 gusting 4 10.6
2018-Oct-23 08:45 246 1 gusting 3 10.0
2018-Oct-23 08:35 242 1 gusting 5 9.4
2018-Oct-23 08:25 229 0 gusting 3 9.4
2018-Oct-23 08:15 203 0 gusting 2 9.4
2018-Oct-23 08:05 271 0 gusting 1 8.9
2018-Oct-23 07:55 227 0 gusting 3 8.9
2018-Oct-23 07:45 250 0 gusting 3 8.9
2018-Oct-23 07:35 246 2 gusting 5 8.9
2018-Oct-23 07:25 250 1 gusting 3 8.9
2018-Oct-23 07:15 239 1 gusting 3 8.9
2018-Oct-23 07:05 249 1 gusting 2 8.9
2018-Oct-23 06:55 250 2 gusting 5 8.3
2018-Oct-23 06:45 221 0 gusting 4 8.3
2018-Oct-23 06:35 250 0 gusting 2 8.3
2018-Oct-23 06:25 256 0 gusting 3 8.3
2018-Oct-23 06:15 242 0 gusting 2 7.8
2018-Oct-23 06:05 272 0 gusting 3 6.7
2018-Oct-23 05:55 223 5.6
2018-Oct-23 05:45 232 0 gusting 2 5.0
2018-Oct-23 05:35 208 0 gusting 2 4.4
2018-Oct-23 05:25 172 3.9
2018-Oct-23 05:15 202 3.9
2018-Oct-23 05:05 240 3.9
2018-Oct-23 04:55 204 0 gusting 1 5.0
2018-Oct-23 04:45 5.6
2018-Oct-23 04:35 200 5.6
2018-Oct-23 04:25 194 0 gusting 2 5.6
2018-Oct-23 04:15 157 5.6
2018-Oct-23 04:05 180 5.6
2018-Oct-23 03:55 174 6.1
2018-Oct-23 03:45 135 6.1
2018-Oct-23 03:35 175 0 gusting 1 6.7
2018-Oct-23 03:25 143 7.2
2018-Oct-23 03:15 182 7.8
2018-Oct-23 03:05 199 0 gusting 2 7.8
2018-Oct-23 02:55 182 0 gusting 3 7.8
2018-Oct-23 02:45 272 0 gusting 2 7.2
2018-Oct-23 02:35 168 6.7
2018-Oct-23 02:25 6.1
2018-Oct-23 02:15 235 5.6
2018-Oct-23 02:05 191 0 gusting 1 4.4
2018-Oct-23 01:55 180 4.4
2018-Oct-23 01:45 225 5.0
2018-Oct-23 01:35 200 0 gusting 1 5.0
2018-Oct-23 01:25 202 5.6
2018-Oct-23 01:15 266 6.1
2018-Oct-23 01:04 7.2
2018-Oct-23 00:55 109 6.7
2018-Oct-23 00:45 140 6.1
2018-Oct-23 00:35 135 6.1
2018-Oct-23 00:25 187 5.6
2018-Oct-23 00:15 5.6
2018-Oct-23 00:05 180 5.6
2018-Oct-22 23:55 223 5.6
2018-Oct-22 23:45 5.6
2018-Oct-22 23:35 6.1
2018-Oct-22 23:25 5.6
2018-Oct-22 23:15 5.6
2018-Oct-22 23:05 5.6
2018-Oct-22 22:55 6.1
2018-Oct-22 22:45 6.1
2018-Oct-22 22:35 6.1
2018-Oct-22 22:25 292 6.1
2018-Oct-22 22:15 270 6.1
2018-Oct-22 22:05 6.1
2018-Oct-22 21:55 157 6.1
2018-Oct-22 21:45 6.1
2018-Oct-22 21:35 020 6.1
2018-Oct-22 21:25 6.1
2018-Oct-22 21:15 262 6.1
2018-Oct-22 21:05 045 6.1
2018-Oct-22 20:55 292 6.1
2018-Oct-22 20:45 350 6.1
2018-Oct-22 20:35 045 6.7
2018-Oct-22 20:25 113 6.7
2018-Oct-22 20:15 080 6.7
2018-Oct-22 20:05 045 6.7
2018-Oct-22 19:55 157 6.7
2018-Oct-22 19:45 020 7.2
2018-Oct-22 19:35 048 0 gusting 2 7.2
2018-Oct-22 19:25 045 7.2
2018-Oct-22 19:15 135 6.7
2018-Oct-22 19:05 292 6.7
2018-Oct-22 18:55 045 6.7
2018-Oct-22 18:45 6.7
2018-Oct-22 18:35 6.7
2018-Oct-22 18:25 6.7
2018-Oct-22 18:15 6.7
2018-Oct-22 18:05 6.7
2018-Oct-22 17:55 6.7
2018-Oct-22 17:45 6.7
2018-Oct-22 17:35 6.7
2018-Oct-22 17:25 292 6.7
2018-Oct-22 17:15 6.7
2018-Oct-22 17:05 7.2
2018-Oct-22 16:55 157 6.7
2018-Oct-22 16:45 6.7
2018-Oct-22 16:35 7.2
2018-Oct-22 16:25 7.2
2018-Oct-22 16:15 7.2
2018-Oct-22 16:05 7.8
2018-Oct-22 15:55 157 8.3
2018-Oct-22 15:45 173 0 gusting 1 8.9
2018-Oct-22 15:35 202 0 gusting 2 8.9
2018-Oct-22 15:25 267 1 gusting 2 8.9
2018-Oct-22 15:15 225 0 gusting 3 8.9
2018-Oct-22 15:05 230 0 gusting 2 9.4
2018-Oct-22 14:55 242 1 gusting 1 9.4
2018-Oct-22 14:45 245 0 gusting 1 9.4
2018-Oct-22 14:35 190 1 gusting 1 10.0
2018-Oct-22 14:25 204 1 gusting 2 10.0
2018-Oct-22 14:15 131 1 gusting 2 10.0
2018-Oct-22 14:05 190 1 gusting 2 10.0
2018-Oct-22 13:55 267 0 gusting 2 10.0
2018-Oct-22 13:45 182 10.6
2018-Oct-22 13:35 206 1 gusting 3 10.6
2018-Oct-22 13:25 182 1 gusting 6 10.6
2018-Oct-22 13:15 282 0 gusting 1 10.0
2018-Oct-22 13:05 153 1 gusting 3 10.6
2018-Oct-22 12:55 193 2 gusting 3 10.6
2018-Oct-22 12:45 190 2 gusting 6 10.6
2018-Oct-22 12:35 222 1 gusting 5 10.6
2018-Oct-22 12:25 050 1 gusting 6 10.6
2018-Oct-22 12:15 196 2 gusting 5 10.6
2018-Oct-22 12:05 210 1 gusting 5 10.6
2018-Oct-22 11:55 224 1 gusting 2 10.6
2018-Oct-22 11:45 111 1 gusting 4 10.0
2018-Oct-22 11:35 225 2 gusting 6 10.6
2018-Oct-22 11:25 151 1 gusting 5 10.0
2018-Oct-22 11:15 327 1 gusting 4 10.0
2018-Oct-22 11:05 154 1 gusting 6 10.0
2018-Oct-22 10:55 271 1 gusting 6 10.0
2018-Oct-22 10:45 197 2 gusting 5 9.4
2018-Oct-22 10:35 212 0 gusting 2 9.4
2018-Oct-22 10:25 224 1 gusting 4 9.4
2018-Oct-22 10:15 270 0 gusting 4 8.9
2018-Oct-22 10:05 188 1 gusting 5 8.9
2018-Oct-22 09:55 063 0 gusting 3 8.9
2018-Oct-22 09:45 199 0 gusting 4 8.9
2018-Oct-22 09:35 199 0 gusting 3 8.9
2018-Oct-22 09:25 187 0 gusting 2 8.3
2018-Oct-22 09:15 188 0 gusting 4 8.3
2018-Oct-22 09:05 274 0 gusting 2 8.3
2018-Oct-22 08:55 211 7.2
2018-Oct-22 08:45 253 0 gusting 2 6.7
2018-Oct-22 08:35 148 6.1
2018-Oct-22 08:25 225 6.1
2018-Oct-22 08:15 236 6.1
2018-Oct-22 08:05 5.6
2018-Oct-22 07:55 139 5.6
2018-Oct-22 07:45 171 5.0
2018-Oct-22 07:35 4.4
2018-Oct-22 07:25 242 3.9
2018-Oct-22 07:15 198 3.3
2018-Oct-22 07:05 2.8
2018-Oct-22 06:55 194 0 gusting 2 2.8
2018-Oct-22 06:45 213 0 gusting 1 2.2
2018-Oct-22 06:35 190 2.2
2018-Oct-22 06:25 2.8
2018-Oct-22 06:15 2.8
2018-Oct-22 06:05 214 2.8
2018-Oct-22 05:55 3.3
2018-Oct-22 05:45 3.3
2018-Oct-22 05:35 135 3.3
2018-Oct-22 05:25 3.3
2018-Oct-22 05:15 135 3.9
2018-Oct-22 05:05 182 3.9
2018-Oct-22 04:55 202 3.9
2018-Oct-22 04:45 108 3.9
2018-Oct-22 04:35 166 4.4
2018-Oct-22 04:25 132 4.4
2018-Oct-22 04:15 178 5.0
2018-Oct-22 04:05 170 5.6
2018-Oct-22 03:55 160 5.6
2018-Oct-22 03:45 179 6.1
2018-Oct-22 03:35 146 6.7
2018-Oct-22 03:25 172 0 gusting 1 6.7
2018-Oct-22 03:15 161 0 gusting 1 6.1
2018-Oct-22 03:05 174 6.1
2018-Oct-22 02:55 138 6.1
2018-Oct-22 02:45 277 5.6
2018-Oct-22 02:35 030 5.6
2018-Oct-22 02:25 202 5.6
2018-Oct-22 02:15 6.1
2018-Oct-22 02:05 156 6.1
2018-Oct-22 01:55 135 6.1
2018-Oct-22 01:45 157 5.6
2018-Oct-22 01:35 5.0
2018-Oct-22 01:25 5.0
2018-Oct-22 01:15 5.0
2018-Oct-22 01:04 5.0
2018-Oct-22 00:55 5.0
2018-Oct-22 00:45 5.0
2018-Oct-22 00:35 5.6
2018-Oct-22 00:25 5.6
2018-Oct-22 00:15 5.6
2018-Oct-22 00:05 171 5.6
2018-Oct-21 23:55 192 0 gusting 1 6.1
2018-Oct-21 23:45 224 6.1
2018-Oct-21 23:35 277 6.1
2018-Oct-21 23:25 084 7.2
2018-Oct-21 23:15 199 7.8
2018-Oct-21 23:05 195 7.8
2018-Oct-21 22:55 225 7.8
2018-Oct-21 22:45 181 7.8
2018-Oct-21 22:35 230 8.3
2018-Oct-21 22:25 233 8.3
2018-Oct-21 22:15 268 8.9
2018-Oct-21 22:05 243 0 gusting 3 8.3
2018-Oct-21 21:55 277 8.3
2018-Oct-21 21:45 228 0 gusting 5 8.3
2018-Oct-21 21:35 184 7.8
2018-Oct-21 21:25 241 7.8
2018-Oct-21 21:15 8.3
2018-Oct-21 21:05 244 8.9
2018-Oct-21 20:55 187 8.9
2018-Oct-21 20:45 176 8.9
2018-Oct-21 20:35 155 8.9
2018-Oct-21 20:25 148 0 gusting 3 8.9
2018-Oct-21 20:15 225 0 gusting 1 8.9
2018-Oct-21 20:05 199 8.9